Welcome to the New NWS' Forecast!
Most changes are behind the scenes, but click here for differences you might notice.

Regional Weather Roundup (RWR)

Issued by National Weather Service (NWS)

                            
816 
ASUS43 KLSX 201257
RWRMO 

WEATHER SUMMARY FOR MISSOURI
NATIONAL WEATHER SERVICE SPRINGFIELD MO
800 AM CDT MON AUG 20 2018

NOTE: "FAIR" INDICATES FEW OR NO CLOUDS BELOW 12,000 FEET WITH NO
       SIGNIFICANT WEATHER AND/OR OBSTRUCTIONS TO VISIBILITY.
       CURRENT SKY AND/OR WEATHER CONDITIONS ARE NOT AVAILABLE FOR
       CHILLICOTHE AND FARMINGTON.

MOZ001>031-035>038-043-044-053-054-201400-
...NORTHERN AND WESTERN MISSOURI...
  
CITY           SKY/WX    TMP DP  RH WIND       PRES   REMARKS
KANSAS CTY INT CLOUDY    67  65  93 W13G20    29.74R                  
LEE'S SUMMIT   CLOUDY    67  67 100 SW13      29.77R                  
ST JOSEPH      CLOUDY    68  67  96 SW13      29.70R                  
CHILLICOTHE      N/A     69  68  96 VRB5      29.70R                  
     
$$
MOZ066>068-077>081-088>096-101>105-201400-
...SOUTHWEST MISSOURI...
  
CITY           SKY/WX    TMP DP  RH WIND       PRES   REMARKS
SPRINGFIELD    PTSUNNY   68  65  90 SW6       29.86R                  
JOPLIN         PTSUNNY   69  66  90 SW7       29.86S                  
BRANSON        PTSUNNY   72  68  88 W5        29.89R                  
               
$$
MOZ032>034-039>042-045>050-055>058-069>072-201400-
...CENTRAL MISSOURI...  
  
CITY           SKY/WX    TMP DP  RH WIND       PRES   REMARKS
COLUMBIA       NOT AVBL                                               
JEFFERSON CITY CLOUDY    71  67  87 S3        29.78R                  
ROLLA          CLOUDY    68  64  87 SW12      29.83R                  
SEDALIA        CLOUDY    69  66  90 SW13      29.79R                  
WARRENSBURG    CLOUDY    66  63  88 SW9       29.77S                  
               
$$
MOZ051-052-059>065-201400-
...EAST CENTRAL MISSOURI...
  
CITY           SKY/WX    TMP DP  RH WIND       PRES   REMARKS
ST LOUIS INTL  PTSUNNY   75  70  84 SW16G24   29.81R                  
                   
$$
MOZ072>076-082>087-097>100-106>115-201400-
...SOUTH CENTRAL AND SOUTHEAST MISSOURI...
  
CITY           SKY/WX    TMP DP  RH WIND       PRES   REMARKS
CAPE GIRARDEAU CLOUDY    73  69  87 SW9       29.87R                  
FARMINGTON     MOSUNNY   73  72  94 SW10      29.86R                  
POPLAR BLUFF   CLOUDY    73  72  96 SW13      29.87S                  
WEST PLAINS    CLOUDY    72  69  90 SW7       29.89S                  
                                       
$$